Content
SEND FEEDBACK

Daily
Averages
Monthly
Summary
Mexico

CHETUMAL, QUINTANA ROO


Home > North America > Mexico > Quintana Roo
Elevation: 30 feet     Latitude: 18 31N     Longitude: 088 18W

WEATHER
 
SELECT A DAY
Number of Records: 126,235;   Date Range: 1/1/95 - 12/19/14
 
SHARE

PRINT THIS DATA

[ ← Previous Day ]
WEATHER ALMANAC - JANUARY 3, 2014
[ Next Day → ]
[ °C ]   °F
Weather ElementAverageHighLow
Temperature75 °F85 °F (11:50 am)69.8 °F (6:43 am)
Dewpoint68.1 °F72 °F (2:50 pm)60.8 °F (6:43 am)
Humidity78.9 %98 % (5:50 pm)55 % (11:50 am)
Barometer29.99 in30.04 in (8:40 pm)29.93 in (1:41 pm)
Wind Speed7.4 mph17.3 mph (2:45 pm)
Weather ElementAverage
Visibility5.5 mi
Wind DirectionSSW (187.8 °)

Weather ElementTotal
Precipitation---
Cooling Degree Days12.4 (Base 65)
Growing Degree Days27.4 (Base 50)
Averaged from 23 records on January 3, 2014
WEATHER CONDITIONS BREAKOUT
WIND DIRECTION BREAKOUT
WEATHER BY HOUR - JANUARY 3, 2014
[ °C ]   °F
Local TimeTemperatureDewpointHumidityBarometerVisibilityWind DirectionWind SpeedGust SpeedPrecipitationEventsConditions
6:43 AM69.8 °F60.8 °F73 %29.97 in7.0 miWNW (300°)9.2 mphOvercast
7:45 AM71.6 °F60.8 °F69 %29.99 in7.0 miNorth (360°)5.8 mphOvercast
8:40 AM73.4 °F60.8 °F65 %30.02 in7.0 miNorth (360°)11.5 mphOvercast
8:50 AM74.0 °F71.0 °F86 %30.03 in6.0 miNorth6.7 mphOvercast
9:42 AM75.2 °F62.6 °F65 %30.02 in7.0 miNorth (360°)5.8 mphOvercast
10:42 AM77.0 °F64.4 °F65 %30.01 in7.0 miNorth (360°)5.8 mphOvercast
11:40 AM80.6 °F68.0 °F65 %29.99 in7.0 miNorth (360°)11.5 mphMostly Cloudy
11:50 AM85.0 °F71.0 °F55 %29.99 in6.0 miNorth6.7 mphOvercast
12:40 PM82.4 °F71.6 °F70 %29.95 in7.0 miNorth (360°)9.2 mphMostly Cloudy
1:41 PM82.4 °F71.6 °F70 %29.93 in7.0 miNorth (360°)5.8 mphMostly Cloudy
2:45 PM82.4 °F71.6 °F70 %29.95 in4.0 miNNE (30°)17.3 mphRainRain
2:50 PM81.0 °F72.0 °F66 %29.96 in6.0 miNorth6.7 mphRainRain
3:45 PM71.6 °F68.0 °F88 %29.96 in3.0 miNNE (20°)5.8 mphRainRain
4:45 PM71.6 °F68.0 °F88 %29.97 in4.0 miNNW (330°)5.8 mphRainRain
5:45 PM71.6 °F68.0 °F88 %29.99 in5.0 miNorth (10°)5.8 mphRainRain
5:50 PM73.0 °F72.0 °F98 %30.00 in5.0 miENE (60°)2.2 mphRainRain
6:00 PM73.0 °F72.0 °F98 %30.00 in5.0 miENE (60°)2.2 mphRainRain
6:45 PM71.6 °F68.0 °F88 %29.99 in7.0 miCalmOvercast
7:40 PM71.6 °F68.0 °F88 %30.02 in3.0 miNNW (330°)11.5 mphRainRain
8:40 PM72.0 °F70.0 °F91 %30.04 in5.0 miNorth6.7 mphRainLight Drizzle
8:40 PM71.6 °F68.0 °F88 %30.03 in3.0 miNNW (330°)11.5 mphRainRain
9:40 PM71.6 °F68.0 °F88 %30.03 in3.0 miNNW (330°)11.5 mphRainRain
11:40 PM71.0 °F69.0 °F92 %30.02 in5.0 miNorth4.5 mphRainLight Drizzle
Hourly data recorded from MMCM, located miles away from Chetumal, Quintana Roo







STORIES FROM OUR PARTNERS